Date,TemperatureHighF,TemperatureAvgF,TemperatureLowF,DewpointHighF,DewpointAvgF,DewpointLowF,HumidityHigh,HumidityAvg,HumidityLow,PressureMaxIn,PressureMinIn,WindSpeedMaxMPH,WindSpeedAvgMPH,GustSpeedMaxMPH,PrecipitationSumIn
2013-7-1,79.3,66.5,65.5,68.7,60.6,-99.9,100,89,67,30.00,29.87,6,-34,11,0.00
2013-7-2,80.0,70.7,64.9,69.5,66.3,64.6,99,87,65,30.12,29.98,6,1,12,0.00
2013-7-3,85.1,71.0,60.1,71.1,66.0,59.8,100,86,55,30.19,30.10,4,0,6,0.00
2013-7-4,75.5,70.3,64.9,71.7,68.6,64.9,100,94,87,30.16,30.08,9,3,15,0.02
2013-7-5,85.5,73.6,66.7,73.5,70.5,66.1,100,91,66,30.17,30.09,8,1,16,0.10
2013-7-6,71.9,70.8,69.1,71.8,70.8,68.9,100,100,99,30.15,30.12,4,1,5,0.06
2013-7-8,91.1,82.7,73.8,78.1,75.1,73.4,100,80,57,30.24,30.13,4,1,7,0.00
2013-7-9,92.3,81.4,69.8,80.0,75.7,69.8,100,85,60,30.21,30.06,5,1,10,0.00
2013-7-10,90.8,81.7,73.4,80.4,76.4,73.0,100,85,66,30.11,29.94,7,2,12,0.00
2013-7-11,87.8,78.8,67.9,77.8,72.7,63.2,100,83,62,30.06,29.98,8,2,14,0.00
2013-7-12,82.8,71.9,61.2,68.4,63.7,60.4,98,78,49,30.12,30.05,9,2,15,0.00
2013-7-13,83.3,71.5,57.9,69.5,64.2,57.6,100,80,54,30.13,30.06,9,2,12,0.00
2013-7-14,85.4,75.1,67.0,77.4,71.9,66.4,100,90,67,30.21,30.10,9,2,14,0.16
2013-7-15,87.8,79.1,71.4,75.9,73.4,70.8,100,84,61,30.31,30.20,9,3,14,0.01
2013-7-16,90.6,75.6,69.8,77.2,64.3,-99.9,100,79,57,30.38,30.28,7,-51,9,0.00
2013-7-17,92.9,82.5,70.9,79.9,75.7,70.9,100,82,56,30.39,30.23,7,1,11,0.00
2013-7-18,90.1,80.2,73.9,80.2,76.4,71.0,100,89,67,30.27,30.12,9,2,17,0.66
2013-7-22,83.3,77.6,74.0,77.8,75.2,73.4,98,93,82,29.99,29.92,3,1,6,0.61
2013-7-23,84.5,76.7,71.8,75.5,73.1,68.2,100,89,69,30.02,29.89,6,1,12,0.01
2013-7-24,86.3,75.1,66.2,75.4,70.1,65.2,99,85,66,30.05,29.90,8,1,20,0.07
2013-7-25,81.7,71.0,60.9,67.7,64.7,60.6,99,82,56,30.16,30.03,7,1,12,0.00
2013-7-26,83.0,72.2,59.3,70.5,65.6,59.3,100,82,57,30.16,30.00,9,1,12,0.00
2013-7-27,84.9,74.5,67.4,71.5,68.7,66.0,100,84,61,30.08,29.95,6,1,10,0.01
2013-7-28,76.3,68.1,58.3,66.4,60.1,53.3,99,78,53,30.18,30.04,7,1,10,0.00
2013-7-29,77.7,68.0,58.2,70.6,63.8,58.2,100,88,64,30.27,30.16,5,1,8,0.00
2013-7-30,78.1,69.6,62.0,73.4,68.1,62.0,100,95,76,30.25,30.13,8,1,11,0.16
2013-7-31,80.2,73.0,69.8,79.3,72.7,69.8,100,99,93,30.15,30.00,6,1,12,2.23